sat.trackr.live / text

‹ back to catalog

STARLINK-1225

NORAD 45187 · 2020-012K

PAYLOAD ACTIVE UNKNOWN

§ Identity

Operator
Country
US
Launch date
2020-02-17
Launch site
AFETR
Launch vehicle
Mass (kg)
RCS (m²)

Purposes: comms

External: N2YO · Heavens-Above · Gunter

§ Orbital elements

Epoch: 2026-09-07T02:31:32.276352Z

Period
93.38 min
Inclination
53.1528°
Eccentricity
0.0001272
Mean motion
15.42160733 rev/d
Perigee alt
438.9 km
Apogee alt
440.6 km
Semi-major
6,817.9 km
B*
7.5273e-4
RAAN
270.4053°
Arg perigee
44.6340°
Mean anomaly
315.4769°
Rev number
36,280

§ Raw data

STARLINK-12251 45187U 20012K   26250.10523468  .00032484  00000+0  75273-3 0  99912 45187  53.1528 270.4053 0001272  44.6340 315.4769 15.42160733362801

JSON: /api/v1/satellites/45187 · /tle

For live sub-satellite position, see the globe view (requires WebGL).

§ Visibility from observer

Set your observer location to see the next 7 days of passes ≥ 10°. The values pass through the URL so the page stays shareable.

No JS? Fill the form by hand. The geolocation button needs JavaScript.